This demonstration page uses our WeatherBlox Daily Observations layout. Learn more.

Left ArrowRight Arrow

39.08367, -84.50855

Hourly Observations for March 13, 2019

Temp ( °F °C ) Dew Point ( °F °C ) Humidity (%) Winds ( mph kmh ) Pressure ( in mb ) Visibility ( mi km ) Precip ( " mm )
12:53 am 00:53 Clear 38 3.3 29 -1.7 70 70 N N/A 30.23 1024 10 16 N/A
1:53 am 01:53 Clear 38 3.3 31 -0.6 76 76 N N/A 30.19 1022 10 16 N/A
2:53 am 02:53 Clear 37 2.8 31 -0.6 79 79 N N/A 30.16 1022 10 16 N/A
3:53 am 03:53 Clear 38 3.3 30 -1.1 73 73 N N/A 30.14 1021 10 16 N/A
4:53 am 04:53 Cloudy 39 3.9 32 undefined 76 76 N N/A 30.14 1021 10 16 N/A
5:53 am 05:53 Cloudy 40 4.4 34 1.1 79 79 N N/A 30.12 1020 10 16 N/A
6:53 am 06:53 Cloudy 42 5.6 29 -1.7 60 60 W 3 6 30.12 1020 10 16 N/A
7:53 am 07:53 Cloudy 43 6.1 29 -1.7 58 58 N N/A 30.12 1020 10 16 N/A
8:53 am 08:53 Cloudy with Light Rain 43 6.1 32 undefined 65 65 SW 3 6 30.13 1020 10 16 N/A
9:53 am 09:53 Cloudy with Light Rain 44 6.7 36 2.2 73 73 N 3 6 30.13 1020 8 13 N/A
10:53 am 10:53 Mostly Cloudy 46 7.8 37 2.8 71 71 N N/A 30.12 1020 10 16 N/A
11:53 am 11:53 Cloudy 50 10 34 1.1 54 54 N N/A 30.11 1020 10 16 N/A
12:53 pm 12:53 Mostly Cloudy 58 14.4 35 1.7 42 42 SSW 9 15 30.09 1019 10 16 N/A
1:53 pm 13:53 Mostly Cloudy 65 18.3 38 3.3 37 37 S 10 17 30.06 1018 10 16 N/A
2:53 pm 14:53 Mostly Sunny 71 21.7 41 5 34 34 SSW 12 19 30.01 1016 10 16 N/A
3:53 pm 15:53 Sunny 72 22.2 37 2.8 28 28 SW 15 24 29.99 1016 10 16 N/A
4:53 pm 16:53 Sunny 72 22.2 39 3.9 30 30 S 8 13 29.97 1015 10 16 N/A
5:53 pm 17:53 Sunny 70 21.1 39 3.9 32 32 SSE 13 20 29.95 1014 10 16 N/A
6:53 pm 18:53 Sunny 68 20 40 4.4 36 36 SSE 8 13 29.95 1014 10 16 N/A
7:53 pm 19:53 Clear 66 18.9 41 5 40 40 SE 5 7 29.94 1014 10 16 N/A
8:53 pm 20:53 Clear 57 13.9 42 5.6 58 58 N N/A 29.93 1014 10 16 N/A
9:53 pm 21:53 Clear 54 12.2 43 6.1 67 67 N N/A 29.93 1014 10 16 N/A
10:53 pm 22:53 Clear 56 13.3 40 4.4 55 55 SSW 7 11 29.93 1014 10 16 N/A
11:53 pm 23:53 Clear 57 13.9 39 3.9 51 51 WSW 5 7 29.94 1014 10 16 N/A

Powered by AerisWeather